METAR

METAR LDZA 180700Z 00000KT CAVOK 20/17 Q1016 NOSIG =
METAR LDSP 180700Z 09004KT 050V130 CAVOK 26/13 Q1016 NOSIG=
METAR LDDU 180700Z 06003KT 350V150 CAVOK 28/13 Q1016 NOSIG =
METAR LDZD 180700Z 16004KT 080V220 CAVOK 25/17 Q1016 NOSIG =
METAR LDPL 180700Z 09005KT CAVOK 25/15 Q1016 NOSIG=
METAR LDOS 180700Z 12005KT CAVOK 20/16 Q1016=
METAR LDRI 180700Z VRB02KT CAVOK 25/18 Q1016=
METAR LDLO 180600Z 06005KT CAVOK 24/17 Q1015=

TAF

TAF LDZA 180525Z 1806/1906 23005KT CAVOK
                 TX31/1814Z TN16/1806Z=
TAF LDSP 180525Z 1806/1906 11004KT CAVOK
                 TX30/1814Z TN21/1904Z
           BECMG 1810/1812 23010KT
           BECMG 1815/1817 24005KT=
TAF LDDU 180525Z 1806/1906 19007KT 9999 FEW040
                 TX28/1811Z TN22/1904Z
           BECMG 1812/1814 28008KT
           BECMG 1818/1820 05006KT=
TAF LDZD 180525Z 1806/1906 17004KT CAVOK
                 TX30/1812Z TN16/1904Z
           BECMG 1810/1812 30010KT
           BECMG 1815/1817 32004KT=
TAF LDPL 180525Z 1806/1906 VRB02KT CAVOK
                 TX28/1810Z TN19/1822Z
    PROB30 TEMPO 1810/1816 25008KT
           TEMPO 1900/1906 09007KT=
TAF LDOS 180525Z 1806/1906 11005KT CAVOK
                 TX30/1814Z TN15/1903Z
           TEMPO 1815/1906 11008KT=
TAF AMD LDSB 172102Z 1721/1818 CNL=
TAF COR LDRI 180526Z 1806/1906 VRB02KT CAVOK
                     TX29/1812Z TN19/1903Z
        PROB30 TEMPO 1810/1816 30007KT=
TAF LDLO 180618Z 1807/1906 05006KT CAVOK
                 TX28/1813Z TN22/1904Z
           BECMG 1808/1810 22008KT
           BECMG 1811/1813 29006KT=

SIGMET

AIRMET

Remark

Ukoliko se brzina i smjer vjetra ne mogu odrediti zbog privremenog kvara sustava/indikatora,
informacija o vjetru u METAR izvješću bit će prikazana kao "/////KT".

 

Disclaimer

 

In case of temporary system/sensor failure, wind speed and direction data will be represented as "/////KT" in METAR report.

 

         

      Politika MET podataka